Weather History for Bradford, PA

Change the Weather History Date:

Tuesday, February 12, 2013

  Actual Average Record
Temperature  
Mean Temperature 27 °F 23 °F  
Max Temperature 30 °F 32 °F 56 °F (1965)
Min Temperature 21 °F 14 °F -19 °F (1979)
Degree Days  
Heating Degree Days 38 36  
Month to date heating degree days 445  
Since 1 July heating degree days 4856  
Cooling Degree Days 0 0  
Month to date cooling degree days 0  
Year to date cooling degree days 0  
Moisture  
Dew Point 20 °F    
Average Humidity 72    
Maximum Humidity 81    
Minimum Humidity 69    
Precipitation  
Precipitation 0.00 in 0.08 in 0.36 in (2009)
Month to date precipitation 1.01  
Year to date precipitation 4.30  
Sea Level Pressure  
Sea Level Pressure 29.91 in    
Wind  
Wind Speed 11 mph (West)    
Max Wind Speed 22 mph    
Max Gust Speed 32 mph    
Visibility 6 miles    
Events Snow    
T = Trace of Precipitation, MM = Missing Value Source: NWS Daily Summary

Daily Weather History Graph

Daily Weather History Graph

Search for Another Location

Airport:

Trip Planner

Search our weather history database for the weather conditions in past years. The results will help you decide how hot, cold, wet, or windy it might be!

Date:

Astronomy

Feb. 12, 2013 Rise Set
Actual Time 7:13 AM EST 5:44 PM EST
Civil Twilight 6:45 AM EST 6:13 PM EST
Nautical Twilight 6:12 AM EST 6:45 PM EST
Astronomical Twilight 5:40 AM EST 7:18 PM EST
Moon 8:06 AM EST (2/12) 8:46 PM EST (2/12)
Length of Visible Light 11h 27m
Length of Day
10h 30m
Waxing Crescent, 7% of the Moon is Illuminated
Feb 12
Waxing Crescent
Feb 17
First Quarter
Feb 25
Full
Mar 4
Last Quarter
Mar 11
New

Hourly Weather History & Observations

Time (EST) Temp. Windchill Dew Point Humidity Pressure Visibility Wind Dir Wind Speed Gust Speed Precip Events Conditions
12:53 AM 30.9 °F 20.7 °F 21.9 °F 69% 29.80 in 9.0 mi West 13.8 mph 24.2 mph 0.00 in   Overcast
1:53 AM 30.0 °F 21.1 °F 21.9 °F 72% 29.81 in 3.0 mi WSW 10.4 mph 23.0 mph 0.00 in Snow Light Snow
2:01 AM 30.0 °F 21.7 °F 21.9 °F 72% 29.78 in 2.5 mi West 9.2 mph 19.6 mph 0.00 in Snow Light Snow
2:14 AM 30.0 °F 21.1 °F 21.9 °F 72% 29.78 in 5.0 mi WSW 10.4 mph 20.7 mph 0.00 in Snow Light Snow
2:53 AM 30.0 °F 19.1 °F 21.0 °F 69% 29.83 in 5.0 mi West 15.0 mph 32.2 mph 0.00 in   Overcast
3:53 AM 28.9 °F 18.2 °F 21.0 °F 72% 29.85 in 5.0 mi West 13.8 mph 20.7 mph 0.00 in Snow Light Snow
4:53 AM 28.9 °F 19.8 °F 21.0 °F 72% 29.88 in 8.0 mi West 10.4 mph 17.3 mph 0.00 in Snow Light Snow
5:53 AM 28.9 °F 15.8 °F 21.0 °F 72% 29.88 in 4.0 mi West 20.7 mph 27.6 mph 0.00 in Snow Light Snow
6:53 AM 28.9 °F 15.4 °F 21.0 °F 72% 29.90 in 7.0 mi West 21.9 mph 28.8 mph 0.00 in   Overcast
7:53 AM 28.0 °F 15.7 °F 19.9 °F 72% 29.94 in 8.0 mi West 17.3 mph 24.2 mph N/A   Overcast
8:03 AM 28.0 °F 18.1 °F 19.9 °F 72% 29.88 in 7.0 mi West 11.5 mph 19.6 mph 0.00 in   Overcast
8:50 AM 28.4 °F 18.0 °F 19.4 °F 69% 29.90 in 2.0 mi West 12.7 mph 26.5 mph 0.00 in Snow Light Snow
8:53 AM 28.0 °F 18.1 °F 19.0 °F 69% 29.96 in 2.0 mi West 11.5 mph 26.5 mph 0.00 in Snow Light Snow
9:03 AM 28.0 °F 17.5 °F 19.0 °F 69% 29.90 in 1.5 mi West 12.7 mph 29.9 mph 0.00 in Snow Light Snow
9:13 AM 27.0 °F 14.7 °F 19.0 °F 72% 29.90 in 2.0 mi West 16.1 mph 23.0 mph 0.00 in Snow Light Snow
9:45 AM 27.0 °F 18.7 °F 19.9 °F 75% 29.91 in 1.8 mi West 8.1 mph 19.6 mph 0.00 in Snow Light Snow
9:53 AM 27.0 °F 17.3 °F 19.9 °F 75% 29.97 in 1.2 mi West 10.4 mph 16.1 mph 0.00 in Snow Light Snow
10:32 AM 27.0 °F 18.0 °F 19.9 °F 75% 29.91 in 2.0 mi West 9.2 mph - 0.00 in Snow Light Snow
10:44 AM 28.0 °F 20.0 °F 19.9 °F 72% 29.91 in 3.0 mi West 8.1 mph 17.3 mph 0.00 in Snow Light Snow
10:53 AM 28.0 °F 18.6 °F 19.9 °F 72% 29.97 in 3.0 mi West 10.4 mph - 0.00 in Snow Light Snow
11:53 AM 28.0 °F 18.6 °F 19.9 °F 72% 29.99 in 8.0 mi West 10.4 mph 20.7 mph 0.00 in   Overcast
12:53 PM 28.0 °F 16.5 °F 19.0 °F 69% 29.96 in 9.0 mi West 15.0 mph 24.2 mph 0.00 in   Overcast
1:53 PM 28.0 °F 17.0 °F 19.0 °F 69% 29.95 in 10.0 mi West 13.8 mph 19.6 mph 0.00 in   Overcast
2:53 PM 28.0 °F 18.6 °F 19.9 °F 72% 29.91 in 10.0 mi WNW 10.4 mph - N/A   Overcast
3:53 PM 28.0 °F 20.8 °F 19.9 °F 72% 29.92 in 10.0 mi West 6.9 mph - N/A   Overcast
4:53 PM 28.0 °F 19.3 °F 19.9 °F 72% 29.95 in 10.0 mi West 9.2 mph - N/A   Overcast
5:53 PM 28.0 °F 20.0 °F 19.9 °F 72% 29.96 in 10.0 mi West 8.1 mph - N/A   Overcast
6:53 PM 28.0 °F 21.7 °F 19.9 °F 72% 29.98 in 10.0 mi Variable 5.8 mph - N/A   Overcast
7:53 PM 28.0 °F 22.8 °F 19.0 °F 69% 29.97 in 10.0 mi Variable 4.6 mph - N/A   Overcast
8:53 PM 27.0 °F 20.5 °F 19.0 °F 72% 29.95 in 10.0 mi West 5.8 mph - N/A   Overcast
9:53 PM 28.0 °F 21.7 °F 19.0 °F 69% 29.93 in 10.0 mi WNW 5.8 mph - N/A   Overcast
10:50 PM 24.8 °F - 17.6 °F 74% 29.85 in 10.0 mi Calm Calm - N/A   Partly Cloudy
10:53 PM 25.0 °F - 18.0 °F 75% 29.92 in 10.0 mi Calm Calm - N/A   Partly Cloudy
11:53 PM 21.0 °F - 16.0 °F 81% 29.91 in 8.0 mi Calm Calm - N/A   Partly Cloudy